User: anonymous   Login
Location: Goheenville
(40.9070°N, 79.3720°W)
Time: 00:25:26
(UTC-04:00)
Language:

Cosmos 1633 - Orbit

View from above orbital plane
View from above orbital plane
View from above satellite
View from above satellite

Ground track
Ground track

The orbit data is extracted from the following two-line orbital elements,

1 15592U 85020A   15086.95025874  .00010181  00000-0  43247-3 0  9991
2 15592 082.5400 050.4226 0016597 152.7602 263.5969 15.22802575640404
Epoch (UTC): 27 March 2015 22:48:22
Eccentricity: 0.0016597
inclination: 82.5400°
perigee height: 486 km
apogee height: 509 km
right ascension of ascending node: 50.4226°
argument of perigee: 152.7602°
revolutions per day: 15.22802575
mean anomaly at epoch: 263.5969°
orbit number at epoch: 64040

The dashed part of the orbit path shows where the satellite is in the earth's shadow,  

DLR